| time (UTC) | temp C | wind direction | speed KPH | gust KPH | rain 1hr cm | rain 24hr cm | rain mn cm | humidity % | barometer mb |
| 20260504013523 | 13 | 268 | 0.0 | 0.0 | 0.00 | 0.00 | 0.00 | 60 | 1018.1 |
| 20260504012523 | 14 | 258 | 0.0 | 1.6 | 0.00 | 0.00 | 0.00 | 59 | 1018.2 |
| 20260504011523 | 14 | 267 | 0.0 | 0.0 | 0.00 | 0.00 | 0.00 | 58 | 1018.4 |
| 20260504010521 | 15 | 267 | 0.0 | 0.0 | 0.00 | 0.00 | 0.00 | 57 | 1018.6 |
| 20260504005520 | 15 | 270 | 0.0 | 0.0 | 0.00 | 0.00 | 0.00 | 55 | 1018.2 |
| 20260504004515 | 15 | 271 | 1.6 | 1.6 | 0.00 | 0.00 | 0.00 | 55 | 1018.3 |
| 20260504003514 | 15 | 261 | 0.0 | 0.0 | 0.00 | 0.00 | 0.00 | 55 | 1018.0 |
| 20260504002514 | 15 | 265 | 0.0 | 0.0 | 0.00 | 0.00 | 0.00 | 54 | 1018.1 |
| 20260504001515 | 16 | 273 | 0.0 | 0.0 | 0.00 | 0.00 | 0.00 | 53 | 1018.2 |
| 20260504000514 | 16 | 272 | 0.0 | 0.0 | 0.00 | 0.00 | 0.00 | 51 | 1018.0 |
| 20260503235515 | 16 | 266 | 0.0 | 0.0 | 0.00 | 0.00 | 0.00 | 49 | 1018.2 |
| 20260503234515 | 17 | 265 | 0.0 | 0.0 | 0.00 | 0.00 | 0.00 | 48 | 1018.3 |
| 20260503233509 | 17 | 263 | 1.6 | 3.2 | 0.00 | 0.00 | 0.00 | 46 | 1018.3 |
| 20260503232508 | 17 | 263 | 0.0 | 1.6 | 0.00 | 0.00 | 0.00 | 45 | 1018.6 |
| 20260503231503 | 17 | 277 | 0.0 | 0.0 | 0.00 | 0.00 | 0.00 | 44 | 1018.6 |
| 20260503230502 | 18 | 270 | 3.2 | 4.8 | 0.00 | 0.00 | 0.00 | 42 | 1018.6 |
| 20260503225503 | 17 | 269 | 1.6 | 1.6 | 0.00 | 0.00 | 0.00 | 42 | 1018.9 |
| 20260503224501 | 17 | 210 | 3.2 | 3.2 | 0.00 | 0.00 | 0.00 | 42 | 1018.8 |
| 20260503223457 | 17 | 270 | 0.0 | 1.6 | 0.00 | 0.00 | 0.00 | 41 | 1018.8 |
| 20260503222456 | 18 | 229 | 4.8 | 4.8 | 0.00 | 0.00 | 0.00 | 43 | 1018.8 |
| 20260503221452 | 18 | 269 | 1.6 | 1.6 | 0.00 | 0.00 | 0.00 | 41 | 1018.9 |
| 20260503220451 | 18 | 283 | 3.2 | 3.2 | 0.00 | 0.00 | 0.00 | 40 | 1019.0 |
| 20260503215451 | 18 | 306 | 1.6 | 1.6 | 0.00 | 0.00 | 0.00 | 38 | 1019.5 |
| 20260503214446 | 18 | 298 | 1.6 | 3.2 | 0.00 | 0.00 | 0.00 | 41 | 1019.3 |
| 20260503213442 | 18 | 276 | 6.4 | 8.0 | 0.00 | 0.00 | 0.00 | 41 | 1019.2 |
| 20260503212441 | 18 | 302 | 1.6 | 3.2 | 0.00 | 0.00 | 0.00 | 40 | 1019.6 |
| 20260503211441 | 18 | 271 | 6.4 | 8.0 | 0.00 | 0.00 | 0.00 | 39 | 1019.6 |
| 20260503210439 | 19 | 277 | 1.6 | 1.6 | 0.00 | 0.00 | 0.00 | 37 | 1019.5 |
| 20260503205437 | 20 | 246 | 1.6 | 3.2 | 0.00 | 0.00 | 0.00 | 36 | 1019.8 |
| 20260503204436 | 18 | 283 | 4.8 | 8.0 | 0.00 | 0.00 | 0.00 | 39 | 1020.0 |
| 20260503203436 | 19 | 289 | 1.6 | 1.6 | 0.00 | 0.00 | 0.00 | 38 | 1019.9 |
| 20260503202431 | 18 | 305 | 1.6 | 1.6 | 0.00 | 0.00 | 0.00 | 42 | 1020.1 |
| 20260503201426 | 18 | 282 | 1.6 | 1.6 | 0.00 | 0.00 | 0.00 | 42 | 1020.2 |
| 20260503200426 | 18 | 277 | 4.8 | 8.0 | 0.00 | 0.00 | 0.00 | 38 | 1020.5 |
| 20260503195420 | 19 | 283 | 1.6 | 1.6 | 0.00 | 0.00 | 0.00 | 40 | 1020.6 |
| 20260503194419 | 18 | 297 | 1.6 | 1.6 | 0.00 | 0.00 | 0.00 | 42 | 1021.0 |
| 20260503193416 | 19 | 306 | 3.2 | 3.2 | 0.00 | 0.00 | 0.00 | 40 | 1021.3 |
| 20260503192414 | 18 | 213 | 3.2 | 3.2 | 0.00 | 0.00 | 0.00 | 40 | 1021.3 |
| 20260503191413 | 18 | 260 | 4.8 | 4.8 | 0.00 | 0.00 | 0.00 | 40 | 1021.3 |
| 20260503190413 | 18 | 297 | 1.6 | 3.2 | 0.00 | 0.00 | 0.00 | 40 | 1021.4 |
| 20260503185412 | 18 | 318 | 1.6 | 1.6 | 0.00 | 0.00 | 0.00 | 40 | 1021.6 |
| 20260503184408 | 17 | 294 | 1.6 | 1.6 | 0.00 | 0.00 | 0.00 | 39 | 1021.3 |
| 20260503183406 | 18 | 306 | 1.6 | 3.2 | 0.00 | 0.00 | 0.00 | 40 | 1021.4 |
| 20260503182402 | 17 | 264 | 0.0 | 1.6 | 0.00 | 0.00 | 0.00 | 40 | 1022.1 |
| 20260503181402 | 17 | 336 | 1.6 | 1.6 | 0.00 | 0.00 | 0.00 | 41 | 1022.0 |
| 20260503180403 | 17 | 220 | 1.6 | 3.2 | 0.00 | 0.00 | 0.00 | 47 | 1022.1 |
| 20260503175357 | 16 | 315 | 0.0 | 1.6 | 0.00 | 0.00 | 0.00 | 43 | 1022.3 |
| 20260503174356 | 16 | 212 | 3.2 | 3.2 | 0.00 | 0.00 | 0.00 | 43 | 1022.4 |
| 20260503173353 | 16 | 312 | 3.2 | 3.2 | 0.00 | 0.00 | 0.00 | 45 | 1022.6 |
| 20260503172353 | 16 | 258 | 1.6 | 3.2 | 0.00 | 0.00 | 0.00 | 42 | 1022.6 |
| 20260503171352 | 16 | 183 | 3.2 | 3.2 | 0.00 | 0.00 | 0.00 | 43 | 1022.7 |
| 20260503170352 | 16 | 15 | 1.6 | 3.2 | 0.00 | 0.00 | 0.00 | 46 | 1023.0 |
| 20260503150321 | 13 | 319 | 1.6 | 1.6 | 0.00 | 0.00 | 0.00 | 45 | 1023.7 |
| 20260503140309 | 12 | 278 | 1.6 | 1.6 | 0.00 | 0.00 | 0.00 | 58 | 1023.6 |
| 20260503131250 | 11 | 351 | 3.2 | 3.2 | 0.00 | 0.00 | 0.00 | 65 | 1023.8 |
| 20260503130245 | 11 | 326 | 3.2 | 3.2 | 0.00 | 0.00 | 0.00 | 64 | 1023.4 |
| 20260503110223 | 5 | 319 | 0.0 | 0.0 | 0.00 | 0.00 | 0.00 | 89 | 1022.2 |
| 20260503100207 | 6 | 319 | 1.6 | 1.6 | 0.00 | 0.00 | 0.00 | 90 | 1021.7 |
| 20260503090153 | 6 | 320 | 0.0 | 0.0 | 0.00 | 0.00 | 0.00 | 90 | 1021.5 |
| 20260503081144 | 7 | 321 | 1.6 | 1.6 | 0.00 | 0.00 | 0.00 | 86 | 1021.0 |
| 20260503080143 | 7 | 319 | 0.0 | 0.0 | 0.00 | 0.00 | 0.00 | 85 | 1021.1 |
| 20260503072134 | 7 | 314 | 0.0 | 0.0 | 0.00 | 0.00 | 0.00 | 84 | 1020.7 |
| 20260503071133 | 7 | 314 | 0.0 | 0.0 | 0.00 | 0.00 | 0.00 | 83 | 1020.3 |
| 20260503070129 | 8 | 314 | 0.0 | 0.0 | 0.00 | 0.00 | 0.00 | 82 | 1020.5 |
| 20260503060115 | 10 | 306 | 1.6 | 1.6 | 0.00 | 0.00 | 0.00 | 74 | 1020.4 |
| 20260503055113 | 9 | 305 | 0.0 | 1.6 | 0.00 | 0.00 | 0.00 | 74 | 1020.2 |
| 20260503054112 | 9 | 305 | 0.0 | 1.6 | 0.00 | 0.00 | 0.00 | 75 | 1020.2 |
| 20260503053108 | 9 | 304 | 0.0 | 0.0 | 0.00 | 0.00 | 0.00 | 76 | 1019.9 |
| 20260503052106 | 9 | 304 | 0.0 | 0.0 | 0.00 | 0.00 | 0.00 | 75 | 1019.9 |
| 20260503051105 | 10 | 304 | 0.0 | 0.0 | 0.00 | 0.00 | 0.00 | 73 | 1020.0 |
| 20260503050105 | 10 | 304 | 0.0 | 1.6 | 0.00 | 0.00 | 0.00 | 73 | 1019.8 |
| 20260503045104 | 10 | 307 | 0.0 | 0.0 | 0.00 | 0.00 | 0.00 | 70 | 1020.0 |
| 20260503044059 | 10 | 310 | 1.6 | 1.6 | 0.00 | 0.00 | 0.00 | 71 | 1020.1 |
| 20260503043058 | 10 | 301 | 0.0 | 1.6 | 0.00 | 0.00 | 0.00 | 71 | 1019.8 |
| 20260503042056 | 10 | 301 | 0.0 | 0.0 | 0.00 | 0.00 | 0.00 | 71 | 1020.0 |
| 20260503041051 | 10 | 301 | 0.0 | 0.0 | 0.00 | 0.00 | 0.00 | 68 | 1019.7 |
| 20260503040051 | 11 | 301 | 0.0 | 1.6 | 0.00 | 0.00 | 0.00 | 69 | 1019.6 |
| 20260503035046 | 11 | 301 | 0.0 | 0.0 | 0.00 | 0.00 | 0.00 | 67 | 1019.8 |
| 20260503034046 | 11 | 301 | 0.0 | 0.0 | 0.00 | 0.00 | 0.00 | 66 | 1019.6 |
| 20260503033041 | 11 | 301 | 1.6 | 1.6 | 0.00 | 0.00 | 0.00 | 64 | 1019.7 |
| 20260503032036 | 11 | 303 | 0.0 | 0.0 | 0.00 | 0.00 | 0.00 | 63 | 1019.9 |
| 20260503031031 | 12 | 314 | 1.6 | 1.6 | 0.00 | 0.00 | 0.00 | 62 | 1019.9 |
| 20260503030030 | 12 | 306 | 1.6 | 1.6 | 0.00 | 0.00 | 0.00 | 62 | 1019.8 |
| 20260503025025 | 12 | 321 | 1.6 | 3.2 | 0.00 | 0.00 | 0.00 | 62 | 1019.6 |
| 20260503024024 | 12 | 299 | 1.6 | 1.6 | 0.00 | 0.00 | 0.00 | 63 | 1019.3 |
| 20260503023024 | 12 | 310 | 3.2 | 3.2 | 0.00 | 0.00 | 0.00 | 62 | 1019.1 |
| 20260503022021 | 12 | 306 | 0.0 | 0.0 | 0.00 | 0.00 | 0.00 | 61 | 1018.9 |
| 20260503021021 | 12 | 241 | 3.2 | 4.8 | 0.00 | 0.00 | 0.00 | 61 | 1019.2 |
| 20260503020020 | 12 | 297 | 3.2 | 3.2 | 0.00 | 0.00 | 0.00 | 60 | 1018.8 |
| 20260503015020 | 12 | 252 | 0.0 | 0.0 | 0.00 | 0.00 | 0.00 | 59 | 1018.7 |